Location: B?jaj?g
(11.7167°N, 92.6667°E)
Time: 07:56:42
(UTC+00:00)

Hubble Space Telescope - Visible Passes

Search period start: 18 September 2021 00:00
Search period end: 28 September 2021 00:00
Orbit: 535 x 539 km, 28.5° (Epoch: 17 September)

Date Brightness Start Highest point End Pass type
(mag) Time Alt. Az. Time Alt. Az. Time Alt. Az.
18 Sep 3.3 12:47:43 10° N 12:48:18 10° NNE 12:48:54 10° NNE visible
19 Sep 3.1 12:35:49 10° N 12:37:27 12° NNE 12:39:05 10° NE visible
20 Sep 2.9 12:24:19 10° NNW 12:26:35 14° NNE 12:28:50 10° NE visible
20 Sep 3.8 14:04:05 10° NW 14:04:26 12° NW 14:04:26 12° NW visible
21 Sep 2.7 12:12:55 10° NNW 12:15:40 17° NNE 12:18:25 10° ENE visible
21 Sep 3.3 13:52:59 10° WNW 13:54:10 18° NW 13:54:10 18° NW visible
22 Sep 2.4 12:01:36 10° NNW 12:04:45 21° NNE 12:07:54 10° ENE visible
22 Sep 2.7 13:41:56 10° WNW 13:43:58 28° WNW 13:43:58 28° WNW visible
23 Sep 1.9 13:30:58 10° WNW 13:33:51 41° W 13:33:51 41° W visible
24 Sep 1.6 13:20:04 10° WNW 13:23:49 42° SW 13:23:49 42° SW visible
25 Sep 2.1 13:09:17 10° W 13:12:56 31° SSW 13:13:52 27° S visible
26 Sep 2.8 12:58:37 10° W 13:01:53 22° SSW 13:03:59 15° S visible
27 Sep 3.2 12:48:12 10° WSW 12:50:50 16° SSW 12:53:28 10° S visible
